Flag for Switzerland Weather past 2 weeks in Chur, Graubünden, Switzerland

Now
40 °F

Quite cool.


Feels Like: 37 °F
Forecast: 42 / 72 °F
Wind: 5 mph from Southwest

Location: Chur-Ems

Current Time: Apr 21, 2015 at 7:01:04 AM

Latest Report: Apr 21, 2015 at 6:00 AM


Visibility: N/A

Pressure: 30.39 "Hg

Humidity: 76%

Dew point: 33 °F

Location of ChurLocation

Historic Weather in Chur — Graph

°F

Chur temperature yesterday

Maximum temperature yesterday: 64 °F (at 5:00 PM)
Minimum temperature yesterday: 38 °F (at 7:00 AM)
Average temperature yesterday: 52 °F

Past Weeks' High & Low Weather Summary

 TemperatureHumidityPressure
High77 °F (Apr 15, 4:00 PM)92% (Apr 7, 1:00 AM)30.64 "Hg (Apr 7, 1:00 AM)
Low28 °F (Apr 6, 6:00 AM)15% (Apr 15, 2:00 PM)29.87 "Hg (Apr 16, 6:00 PM)
Average52 °F53%30.26 "Hg
* Reported Apr 6 6:00 AM — Apr 21 5:00 AM, Chur, Weather by CustomWeather, © 2015

Note: Actual official high and low records may vary slightly from our data, if they occured in-between our weather recording intervals... More about our weather records

Advertising

Chur weather history for previous 24 hours

 ConditionsComfort  
Time TempWeatherWind HumidityBarometerVisibility
5:00 AM
Tue, Apr 21
40 °FClear.3 mph75%30.39 "Hg12 mi
4:00 AM42 °FQuite cool.3 mph73%30.38 "HgN/A
3:00 AM41 °FQuite cool.1 mph73%30.38 "HgN/A
2:00 AM45 °FClear.No wind64%30.35 "Hg12 mi
1:00 AM47 °FCool.2 mph60%30.32 "HgN/A
12:00 AM47 °FCool.1 mph59%30.30 "HgN/A
11:00 PM
Mon, Apr 20
56 °FClear.6 mph41%30.25 "Hg12 mi
10:00 PM57 °FRefreshingly cool.10 mph36%30.23 "HgN/A
9:00 PM58 °FRefreshingly cool.13 mph35%30.21 "HgN/A
8:00 PM59 °FScattered clouds.12 mph34%30.16 "Hg12 mi
7:00 PM59 °FRefreshingly cool.9 mph36%30.14 "HgN/A
6:00 PM63 °FMild.15 mph33%30.11 "HgN/A
5:00 PM64 °FScattered clouds.15 mph30%30.10 "Hg16 mi
4:00 PM64 °FMild.16 mph28%30.10 "HgN/A
3:00 PM63 °FMild.16 mph30%30.11 "HgN/A
2:00 PM62 °FScattered clouds.14 mph38%30.11 "Hg10 mi
1:00 PM60 °FRefreshingly cool.15 mph45%30.14 "HgN/A
12:00 PM57 °FRefreshingly cool.10 mph46%30.17 "HgN/A
11:00 AM56 °FPassing clouds.7 mph47%30.18 "Hg19 mi
10:00 AM51 °FCool.3 mph53%30.19 "HgN/A
9:00 AM46 °FCool.2 mph60%30.23 "HgN/A
8:00 AM41 °FSunny.1 mph74%30.25 "Hg16 mi
7:00 AM38 °FChilly.2 mph81%30.24 "HgN/A
Weather by CustomWeather, © 2015

See weather overviewHow to use our weather pages